User: anonymous   Login
Location: Unspecified
(0.0000°N, 0.0000°E)
Time: 18:57:18
(UTC+00:00)
Language:

CANX 3A (UNIBRITE) - Orbit

View from above orbital plane
View from above orbital plane
View from above satellite
View from above satellite

Ground track
Ground track

The orbit data is extracted from the following two-line orbital elements,

1 39092U 13009G   15241.44797065  .00000070  00000-0  40281-4 0  9997
2 39092 098.5997 079.5180 0010581 090.1810 270.0588 14.34778873131159
Epoch (UTC): 29 August 2015 10:45:04
Eccentricity: 0.0010581
inclination: 98.5997°
perigee height: 768 km
apogee height: 783 km
right ascension of ascending node: 79.5180°
argument of perigee: 90.1810°
revolutions per day: 14.34778873
mean anomaly at epoch: 270.0588°
orbit number at epoch: 13115

The dashed part of the orbit path shows where the satellite is in the earth's shadow,  

DLR